Location: ??????
(36.0418°N, 43.6351°E)
Time: 01:39:29
(UTC+00:00)

Cosmos 2360 Rocket - Pass Details

Date: 07 March 2021
Orbit: 833 x 846 km, 71.0° (Epoch: 22 April)

Event Time Altitude Azimuth Distance (km) Brightness Sun altitude
Rises 02:46:44 0° 318° (NW) 3,410 5.0 -9.1°
Reaches altitude 10° 02:50:09 10° 297° (WNW) 2,469 4.1 -8.4°
Maximum altitude 02:53:23 16° 262° (W) 2,086 3.6 -7.7°
Drops below altitude 10° 02:56:37 10° 226° (SW) 2,458 4.2 -7.1°
Sets 03:00:02 0° 205° (SSW) 3,386 5.1 -6.4°
